[[{"header":{"parameterUnit":"m.s-1","parameterCategory":1,"la1":30.2991,"la2":30.254,"lo1":-89.0895,"lo2":-89.0444,"dy":0.0017,"dx":0.0017,"nx":28,"ny":28,"refTime":"2024-09-04T03:00:00:Z","depth":0,"parameterNumber":2,"parameterNumberName":"U-component_of_WINDS"},"data":[0,0,0,0,0,0,0,0,0,0,0,0,0,0,0,0,0,0,0,0,0,0,0,0,0,0,0,0,0,0,0,0,0,0,0,0,0,0,0,0,0,0,0,0,0,0,0,0,0,0,0,0,0,0,0,0,0,0,-5.5435,-5.5435,0,-5.5451,-5.5452,-5.5452,-5.5274,-5.527,-5.5265,-5.526,-5.5279,-5.5284,-5.5289,0,0,0,0,0,0,0,0,0,0,0,0,0,-5.5253,-5.5257,-5.5435,-5.5435,-5.5436,-5.5451,-5.5452,-5.5452,-5.5275,-5.5269,-5.5263,-5.5258,-5.5278,-5.5283,-5.529,0,0,0,0,0,0,0,0,0,0,0,0,0,-5.5307,-5.5258,-5.5435,-5.5349,-5.5342,-5.5451,-5.5452,-5.5452,-5.5277,-5.5269,-5.5262,-5.5255,-5.5276,-5.5283,-5.529,-5.5484,0,0,-5.5314,-5.5317,0,0,0,0,0,0,0,0,-5.5304,-5.5314,-5.5362,-5.5355,-5.5347,-5.5353,-5.5394,-5.5463,-5.5278,-5.5301,-5.526,-5.5251,-5.531,-5.5314,-5.5333,-5.5485,-5.5485,-5.5314,-5.5319,-5.5322,-5.5324,0,0,0,0,0,0,0,-5.53,-5.5312,-5.5441,-5.5363,-5.5354,-5.531,-5.531,-5.5406,-5.5347,-5.5299,-5.5286,-5.529,-5.5305,-5.5327,-5.5333,-5.5486,-5.5314,-5.5321,-5.5325,-5.5328,-5.5796,-5.5804,0,0,0,0,0,0,-5.5308,-5.531,-5.5441,-5.5442,-5.5307,-5.532,-5.5319,-5.5359,-5.5345,-5.5336,-5.5296,-5.5282,-5.5317,-5.5324,-5.5333,-5.5557,-5.5322,-5.5329,-5.5333,-5.5788,-5.5798,-5.5806,0,0,0,0,0,0,-5.5305,-5.5321,-5.544,-5.5373,-5.5384,-5.5331,-5.5377,-5.5363,-5.5385,-5.5343,-5.5332,-5.533,-5.5312,-5.5322,-5.5447,-5.5556,-5.5333,-5.5339,-5.5779,-5.5791,-5.5802,-5.601,0,0,0,0,0,0,-5.53,-5.5321,-5.5394,-5.5376,-5.5389,-5.5555,-5.5383,-5.5369,-5.5398,-5.5379,-5.5371,-5.5363,-5.5307,-5.5437,-5.5455,-5.5562,-5.5345,-5.5769,-5.5784,-5.5798,-5.5993,-5.6027,-5.6056,0,0,0,0,0,-5.5294,-5.5452,-5.5398,-5.5415,-5.5478,-5.5561,-5.5569,-5.55,-5.5407,-5.548,-5.5453,-5.5363,-5.5541,-5.5451,-5.547,-5.5581,-5.5762,-5.578,-5.5797,-5.5978,-5.602,-5.6056,0,0,0,0,0,0,-5.5485,-5.5448,-5.5388,-5.5544,-5.5558,-5.5531,-5.562,-5.5547,-5.5586,-5.5567,-5.5481,-5.5481,-5.562,-5.5613,-5.5513,-5.5767,-5.5635,-5.5658,-5.5767,-5.5806,-5.5837,-5.5836,-5.5352,0,0,0,0,0,-5.5545,-5.5615,-5.5579,-5.5721,-5.573,-5.5675,-5.5709,-5.5655,-5.5665,-5.5669,-5.5652,-5.5666,-5.5724,-5.5765,-5.5817,-5.5991,-5.5987,-5.6077,-5.6109,-5.6135,-5.6155,-5.6247,-5.6286,-5.5864,-5.5864,-5.5864,0,0,-5.567,-5.5659,-5.5709,-5.5759,-5.5762,-5.5837,-5.5681,-5.5767,-5.5822,-5.5682,-5.5799,-5.5788,-5.5797,-5.5948,-5.6014,-5.5946,-5.6271,-5.6158,-5.6179,-5.6185,-5.6269,-5.6309,-5.6345,-5.5876,-5.5874,-5.5872,0,0,-5.5936,-5.5935,-5.6052,-5.6059,-5.6066,-5.6028,-5.6057,-5.6042,-5.6029,-5.6145,-5.6042,-5.6106,-5.621,-5.622,-5.624,-5.6511,-5.643,-5.6531,-5.6696,-5.6787,-5.682,-5.6849,-5.6945,-5.6981,-5.6551,-5.6551,-5.6552,0,-5.6091,-5.6199,-5.6122,-5.6215,-5.624,-5.6118,-5.6236,-5.6247,-5.6271,-5.6292,-5.6216,-5.6343,-5.6341,-5.6492,-5.6558,-5.6578,-5.6608,-5.653,-5.6821,-5.6849,-5.6875,-5.6966,-5.7003,-5.6564,-5.6562,-5.6561,-5.656,0,-5.6389,-5.6466,-5.656,-5.6585,-5.6621,-5.6727,-5.6667,-5.6712,-5.6656,-5.6626,-5.6746,-5.674,-5.6788,-5.682,-5.6766,-5.6964,-5.6922,-5.6836,-5.6701,-5.6929,-5.7013,-5.7047,-5.6581,-5.6577,-5.6573,-5.657,0,0,-5.6774,-5.6756,-5.6792,-5.6802,-5.6802,-5.686,-5.696,-5.7007,-5.7048,-5.7069,-5.7151,-5.7241,-5.7161,-5.7183,-5.7129,-5.7209,-5.7424,-5.7111,-5.711,-5.7169,-5.7642,-5.7707,-5.7748,-5.737,-5.7376,-5.7381,-5.7641,0,-5.7032,-5.7201,-5.7136,-5.731,-5.738,-5.7265,-5.7352,-5.7362,-5.7338,-5.7394,-5.7367,-5.7432,-5.7321,-5.7334,-5.7407,-5.7382,-5.7517,-5.7362,-5.7446,-5.7449,-5.7446,-5.7792,-5.786,-5.8105,-5.7673,-5.7679,-5.7683,0,-5.7356,-5.739,-5.7572,-5.7558,-5.7585,-5.7665,-5.7702,-5.7758,-5.7766,-5.7743,-5.7769,-5.7697,-5.7795,-5.7662,-5.7796,-5.7692,-5.7722,-5.7715,-5.7723,-5.7727,-5.7579,-5.7805,-5.8182,-5.8219,-5.7734,-5.773,-5.7726,0,-5.7618,-5.7709,-5.7829,-5.7842,-5.783,-5.7889,-5.7887,-5.7888,-5.792,-5.7954,-5.7974,-5.8019,-5.8043,-5.808,-5.8023,-5.7931,-5.8165,-5.8027,-5.8149,-5.815,-5.8202,-5.8199,-5.8589,-5.8224,-5.8223,-5.8223,-5.8222,0,-5.7913,-5.8028,-5.7947,-5.8021,-5.8147,-5.8071,-5.8198,-5.8183,-5.8186,-5.8255,-5.816,-5.8227,-5.8148,-5.8208,-5.8165,-5.8282,-5.8294,-5.8278,-5.8265,-5.8286,-5.8288,-5.8304,-5.8285,-5.8232,-5.823,-5.8228,-5.8227,0,-5.8226,-5.8177,-5.83,-5.8279,-5.8276,-5.837,-5.8352,-5.842,-5.8389,-5.8478,-5.8495,-5.8447,-5.8513,-5.846,-5.8525,-5.8495,-5.865,-5.8614,-5.8647,-5.8637,-5.8761,-5.875,-5.9173,-5.9225,-5.8828,-5.8832,-5.8835,0,-5.8417,-5.8503,-5.8491,-5.853,-5.8534,-5.8599,-5.8631,-5.856,-5.8598,-5.8615,-5.8681,-5.8739,-5.8781,-5.8892,-5.8863,-5.8912,-5.8875,-5.902,-5.8882,-5.8901,-5.8877,-5.8872,-5.888,-5.9048,-5.9053,-5.9057,-5.906,0,-5.8761,-5.8732,-5.8781,-5.8824,-5.8865,-5.8895,-5.8917,-5.8955,-5.8882,-5.893,-5.8996,-5.9029,-5.9094,-5.9153,-5.9193,-5.9191,-5.9115,-5.9104,-5.9134,-5.9156,-5.9172,-5.9165,-5.8723,-5.9094,-5.9091,-5.9088,-5.9086,-5.9085,-5.9017,-5.9088,-5.9091,-5.915,-5.9159,-5.9183,-5.9245,-5.9222,-5.9276,-5.9323,-5.9278,-5.9358,-5.9365,-5.941,-5.9418,-5.948,-5.942,-5.9464,-5.9475,-5.9487,-5.9505,-5.9164,-5.9487,-5.9486,-5.9485,-5.9484,-5.9483,0,-5.9355,-5.9351,-5.9406,-5.944,-5.9487,-5.941,-5.9431,-5.9475,-5.9547,-5.9559,-5.9603,-5.9679,-5.9736,-5.9712,-5.9762,-5.9816,-5.9782,-5.9832,-5.9826,-5.9827,-5.9556,-5.9524,-5.9858,-5.9858,-5.9858,-5.9858,-5.9858,-5.9858,-5.9536,-5.9652,-5.9624,-5.9744,-5.9739,-5.9816,-5.9834,-5.9856,-5.9865,-5.9954,-6.0001,-5.9985,-5.9983,-6.0032,-6.0081,-6.0072,-6.0095,-6.0157,-6.0136,-5.9883,-5.9846,-5.9811,-5.978,-6.0163,-6.0163,-6.0402,-6.0404,-6.0406]},{"header":{"parameterUnit":"m.s-1","parameterCategory":1,"la1":30.2991,"la2":30.254,"lo1":-89.0895,"lo2":-89.0444,"dy":0.0017,"dx":0.0017,"nx":28,"ny":28,"refTime":"2024-09-04T03:00:00:Z","depth":0,"parameterNumber":3,"parameterNumberName":"V-component_of_WINDS"},"data":[0,0,0,0,0,0,0,0,0,0,0,0,0,0,0,0,0,0,0,0,0,0,0,0,0,0,0,0,0,0,0,0,0,0,0,0,0,0,0,0,0,0,0,0,0,0,0,0,0,0,0,0,0,0,0,0,0,0,-0.139,-0.139,0,-0.1441,-0.1442,-0.1442,-0.1565,-0.1567,-0.157,-0.1572,-0.162,-0.1619,-0.1618,0,0,0,0,0,0,0,0,0,0,0,0,0,-0.1393,-0.1392,-0.139,-0.139,-0.1391,-0.1441,-0.1442,-0.1442,-0.1564,-0.1568,-0.1571,-0.1574,-0.1621,-0.1619,-0.1618,0,0,0,0,0,0,0,0,0,0,0,0,0,-0.1412,-0.1392,-0.139,-0.1458,-0.1465,-0.1441,-0.1442,-0.1443,-0.1564,-0.1568,-0.1571,-0.1575,-0.1621,-0.162,-0.1618,-0.153,0,0,-0.1613,-0.1612,0,0,0,0,0,0,0,0,-0.1411,-0.1412,-0.1447,-0.1453,-0.1461,-0.1501,-0.1461,-0.1472,-0.1563,-0.1526,-0.1572,-0.1577,-0.1577,-0.1579,-0.158,-0.1533,-0.1535,-0.1613,-0.1612,-0.1611,-0.161,0,0,0,0,0,0,0,-0.141,-0.1411,-0.141,-0.1448,-0.1456,-0.1485,-0.1492,-0.1463,-0.1529,-0.1529,-0.1539,-0.1543,-0.1581,-0.1582,-0.1582,-0.1535,-0.1613,-0.1611,-0.161,-0.1609,-0.1417,-0.1413,0,0,0,0,0,0,-0.1399,-0.1409,-0.1408,-0.1412,-0.1445,-0.1482,-0.1489,-0.1484,-0.153,-0.1541,-0.154,-0.1549,-0.1583,-0.1584,-0.1584,-0.1484,-0.1611,-0.1609,-0.1608,-0.1421,-0.1416,-0.1411,0,0,0,0,0,0,-0.1399,-0.1398,-0.1406,-0.1413,-0.1416,-0.1477,-0.147,-0.1483,-0.1483,-0.1538,-0.155,-0.1528,-0.1586,-0.1587,-0.1543,-0.1487,-0.1609,-0.1607,-0.1425,-0.1419,-0.1413,-0.1282,0,0,0,0,0,0,-0.1398,-0.1397,-0.1365,-0.1411,-0.1415,-0.1365,-0.1467,-0.1481,-0.148,-0.1493,-0.153,-0.154,-0.1589,-0.1545,-0.1541,-0.1487,-0.1606,-0.1431,-0.1423,-0.1415,-0.1291,-0.1272,-0.1255,0,0,0,0,0,-0.1398,-0.1326,-0.1363,-0.1363,-0.1377,-0.1361,-0.1363,-0.1423,-0.1476,-0.1443,-0.1478,-0.1538,-0.1494,-0.1539,-0.1536,-0.148,-0.1434,-0.1425,-0.1416,-0.1299,-0.1275,-0.1255,0,0,0,0,0,0,-0.127,-0.1333,-0.1375,-0.1316,-0.1332,-0.1382,-0.1343,-0.1396,-0.1397,-0.1408,-0.148,-0.1487,-0.1433,-0.1453,-0.1502,-0.1397,-0.1474,-0.1464,-0.1386,-0.1364,-0.1346,-0.1342,-0.1604,0,0,0,0,0,-0.1236,-0.1219,-0.1274,-0.1216,-0.1223,-0.1281,-0.1276,-0.1321,-0.134,-0.1347,-0.1379,-0.1394,-0.1384,-0.1376,-0.1369,-0.1295,-0.1304,-0.1255,-0.1237,-0.1222,-0.1212,-0.1172,-0.1151,-0.1381,-0.1381,-0.1381,0,0,-0.1163,-0.1195,-0.118,-0.1191,-0.121,-0.1189,-0.1286,-0.1261,-0.1245,-0.1343,-0.1304,-0.1327,-0.1349,-0.1289,-0.1264,-0.1304,-0.115,-0.121,-0.1198,-0.1196,-0.116,-0.1139,-0.1119,-0.1374,-0.1376,-0.1377,0,0,-0.102,-0.1043,-0.0997,-0.1014,-0.104,-0.108,-0.1068,-0.111,-0.113,-0.1091,-0.1164,-0.1146,-0.1127,-0.1139,-0.1143,-0.1004,-0.1058,-0.1,-0.0904,-0.0865,-0.0847,-0.0831,-0.0779,-0.076,-0.0989,-0.0989,-0.0989,0,-0.0926,-0.0899,-0.0966,-0.0936,-0.0938,-0.1027,-0.098,-0.0992,-0.1014,-0.1012,-0.1057,-0.1034,-0.1055,-0.0999,-0.0964,-0.0965,-0.0953,-0.0995,-0.0844,-0.0829,-0.0815,-0.0767,-0.0747,-0.0982,-0.0982,-0.0983,-0.0984,0,-0.0781,-0.0762,-0.0721,-0.0741,-0.0739,-0.07,-0.0759,-0.0749,-0.0793,-0.0827,-0.0786,-0.0814,-0.0814,-0.0805,-0.0847,-0.0753,-0.0777,-0.0832,-0.091,-0.0785,-0.074,-0.0722,-0.0971,-0.0974,-0.0976,-0.0978,0,0,-0.0558,-0.0617,-0.06,-0.061,-0.0646,-0.0631,-0.0595,-0.0597,-0.0585,-0.0597,-0.0568,-0.055,-0.06,-0.0604,-0.0649,-0.0615,-0.05,-0.0674,-0.0676,-0.0639,-0.0396,-0.0353,-0.033,-0.0538,-0.0534,-0.0532,-0.0393,0,-0.0422,-0.0366,-0.0425,-0.0356,-0.0337,-0.0422,-0.0391,-0.0408,-0.0439,-0.0426,-0.046,-0.0445,-0.0514,-0.0517,-0.0487,-0.052,-0.0452,-0.0532,-0.0508,-0.0507,-0.0498,-0.0308,-0.0262,-0.013,-0.0377,-0.0374,-0.0372,0,-0.0256,-0.0261,-0.019,-0.023,-0.0224,-0.0195,-0.0201,-0.0189,-0.0209,-0.0234,-0.0238,-0.0293,-0.0259,-0.0336,-0.0289,-0.0342,-0.0336,-0.0351,-0.0347,-0.0345,-0.043,-0.0299,-0.009,-0.0069,-0.0345,-0.0348,-0.0349,0,-0.0098,-0.0087,-0.0044,-0.005,-0.0095,-0.0072,-0.009,-0.0115,-0.0111,-0.0116,-0.0114,-0.0113,-0.0113,-0.011,-0.0163,-0.0215,-0.0108,-0.019,-0.0125,-0.0124,-0.0098,-0.0098,0.0118,-0.0097,-0.0097,-0.0098,-0.0098,0,0.0061,0.0109,0.0027,0.0055,0.0106,0.0038,0.0091,0.0064,0.0043,0.0065,-0.0008,0.0015,-0.0057,-0.0041,-0.0082,-0.0035,-0.0035,-0.0052,-0.0063,-0.0044,-0.0041,-0.004,-0.0049,-0.0092,-0.0094,-0.0095,-0.0095,0,0.0248,0.0194,0.0237,0.019,0.018,0.022,0.0181,0.0205,0.0169,0.0198,0.0201,0.0146,0.0161,0.0108,0.0114,0.0087,0.0156,0.0129,0.0163,0.0156,0.0224,0.022,0.045,0.0478,0.0245,0.0247,0.0249,0,0.0354,0.0388,0.0345,0.0354,0.034,0.0355,0.0358,0.0293,0.0299,0.0278,0.0306,0.0314,0.0318,0.0346,0.0307,0.0312,0.0286,0.0366,0.0286,0.0305,0.029,0.0289,0.0293,0.0384,0.0387,0.0389,0.0391,0,0.0548,0.052,0.0526,0.0524,0.0529,0.0524,0.0515,0.0527,0.0457,0.0468,0.0481,0.0484,0.049,0.0501,0.0497,0.0481,0.0426,0.0416,0.0432,0.0452,0.0472,0.0464,0.0211,0.0412,0.041,0.0408,0.0407,0.0406,0.0699,0.0726,0.07,0.071,0.0695,0.0688,0.0709,0.0676,0.0685,0.0684,0.0645,0.0668,0.0647,0.0637,0.0626,0.0643,0.0606,0.0628,0.0634,0.0641,0.0654,0.0467,0.0642,0.0642,0.0641,0.064,0.064,0,0.0892,0.087,0.088,0.0868,0.0877,0.0821,0.0808,0.0819,0.0839,0.0824,0.0828,0.0845,0.0855,0.0817,0.0822,0.0843,0.0818,0.0847,0.0846,0.0844,0.0686,0.0673,0.0867,0.0867,0.0867,0.0867,0.0867,0.0867,0.0993,0.1036,0.1006,0.1042,0.1021,0.1041,0.1038,0.1032,0.1019,0.1041,0.1048,0.1023,0.0999,0.1002,0.1009,0.0997,0.1004,0.1042,0.1023,0.0877,0.0855,0.0833,0.0821,0.1043,0.1044,0.1179,0.118,0.1181]}]]